Regional Weather Roundup
Issued by NWS

Home | Current Version | Previous Version | Text Only | Print | Product List | Glossary Off
Versions: 1 2 3 4 5 6 7 8 9 10 11 12 13 14 15 16 17 18 19 20 21 22 23 24 25 26 27 28 29 30 31 32 33 34 35 36 37 38 39 40 41 42 43 44 45 46 47 48 49 50

000
ASUS45 KBOI 230110
RWRID
WEATHER ROUNDUP FOR IDAHO
NATIONAL WEATHER SERVICE BOISE ID
700 PM MDT TUE JUL 22 2014

NOTE: "FAIR" INDICATES FEW OR NO CLOUDS BELOW 12000 FEET
WITH NO SIGNIFICANT WEATHER AND/OR OBSTRUCTIONS TO VISIBILITY

IDZ012-014-230200-
SOUTHWEST IDAHO


CITY           SKY/WX    TMP DP  RH WIND       PRES   REMARKS
BOISE          MOSUNNY   92  43  18 NW9       30.00F
CALDWELL       MOSUNNY   90  48  24 NE3       30.01F
MOUNTAIN HOME  MOSUNNY   92  44  19 W8        30.00F
$$

IDZ016-017-230200-
SOUTHCENTRAL IDAHO


CITY           SKY/WX    TMP DP  RH WIND       PRES   REMARKS
BURLEY         SUNNY     91  47  21 NE10      30.04F
JEROME         SUNNY     89  62  40 NW5       30.05F
TWIN FALLS     SUNNY     94  47  20 N7        30.05F HX  90
$$

IDZ019>023-230200-
SOUTHEAST IDAHO


CITY           SKY/WX    TMP DP  RH WIND       PRES   REMARKS
IDAHO FALLS    MOSUNNY   91  46  21 NE8       30.17F
POCATELLO      MOSUNNY   91  45  20 N9        30.14F
REXBURG        MOSUNNY   86  37  17 SW3       30.19F
$$

IDZ006-010-011-018-031-032-230200-
CENTRAL IDAHO MOUNTAINS


CITY           SKY/WX    TMP DP  RH WIND       PRES   REMARKS
MCCALL         CLOUDY    77  41  27 S8        30.18F
HAILEY         MOSUNNY   81  52  36 SE5       30.21F
STANLEY          N/A     79  38  22 CALM      30.29F
SALMON         PTSUNNY   88  43  20 W7        30.05S
CHALLIS        MOSUNNY   87  34  15 W10       30.15F
$$

IDZ002-004-006-007-026-230200-
NORTHERN IDAHO


CITY           SKY/WX    TMP DP  RH WIND       PRES   REMARKS
LEWISTON       LGT RAIN  77  62  59 E6        30.04R
LOWELL           N/A     85  57  38 CALM      29.93F
COEUR D`ALENE  MOSUNNY   73  57  56 E14       30.09F
MULLAN PASS    MOSUNNY   60  53  77 N6        30.29F
$$


USA.gov is the U.S. government's official web portal to all federal, state and local government web resources and services.